Regional Weather Roundup
Issued by NWS

Home | Current Version | Previous Version | Text Only | Print | Product List | Glossary Off
Versions: 1 2 3 4 5 6 7 8 9 10 11 12 13 14 15 16 17 18 19 20 21 22 23 24 25 26 27 28 29 30 31 32 33 34 35 36 37 38 39 40 41 42 43 44 45 46 47 48 49 50

000
ASUS43 KMKX 221021
RWRWI

WISCONSIN REGIONAL WEATHER ROUNDUP
NATIONAL WEATHER SERVICE MILWAUKEE/SULLIVAN WI
500 AM CDT SUN OCT 22 2017

NOTE: "FAIR" INDICATES FEW OR NO CLOUDS BELOW 12,000 FEET WITH NO
SIGNIFICANT WEATHER AND/OR OBSTRUCTIONS TO VISIBILITY.

WIZ001-002-006>008-014>016-023>028-221100-
NORTHWEST WISCONSIN

CITY           SKY/WX    TMP DP  RH WIND       PRES   REMARKS
SUPERIOR ARPT  CLOUDY    48  45  89 SW9       29.79S
ASHLAND        CLOUDY    51  46  83 SW10G22   29.80R
HAYWARD        CLOUDY    49  44  83 SW7       29.83S
SIREN          PTCLDY    47  42  82 SW8       29.85R
CUMBERLAND     MOCLDY    46  43  87 W8        29.86R
RICE LAKE      MOCLDY    49  44  81 SW7       29.88R
CHETEK         MOCLDY    49  44  82 W5        29.87R
LADYSMITH      CLOUDY    51  48  90 SW10      29.87R
EAU CLAIRE     CLOUDY    51  46  83 W9        29.87R
MENOMONIE      CLOUDY    51  45  79 SW7       29.88S
NEW RICHMOND   CLOUDY    48  41  77 W8        29.88R
OSCEOLA        CLOUDY    48  43  81 W8        29.91R
$$

WIZ003>005-009-010-017-018-221100-
NORTH CENTRAL WISCONSIN

CITY           SKY/WX    TMP DP  RH WIND       PRES   REMARKS
MANITOWISH WTR DRIZZLE   52  52 100 W13G22    29.79R
ARBOR VITAE    LGT RAIN  57  55  93 W13G21    29.80R
WOODRUFF       LGT RAIN  57  55  93 W13G21    29.80R
RHINELANDER    CLOUDY    60  60 100 S16G22    29.81S
EAGLE RIVER    NOT AVBL
LAND O LAKES   CLOUDY    60  59  95 S7G17     29.80R
PHILLIPS       CLOUDY    50  50 100 SW7       29.81F
TOMAHAWK       CLOUDY    52  50  94 W10G16    29.84R
MEDFORD        CLOUDY    51  49  93 W9        29.86R
MERRILL        DRIZZLE   54  54  99 W14G22    29.83R
$$

WIZ029-030-035-036-043>047-221100-
CENTRAL WISCONSIN

CITY           SKY/WX    TMP DP  RH WIND       PRES   REMARKS
WAUSAU         CLOUDY    60  58  92 SW9       29.81S
MOSINEE        CLOUDY    59  59 100 S7        29.84S
MARSHFIELD     CLOUDY    52  50  93 W7        29.86R FOG
STEVENS POINT  PTCLDY    57  57 100 SW7       29.85S
WAUPACA        CLOUDY    66  59  78 S9        29.83F
WAUTOMA        CLOUDY   N/A N/A N/A SW5       29.85S
WISC RAPIDS    CLOUDY    59  58  96 W10       29.85S
CAMP DOUGLAS   NOT AVBL
$$

WIZ011>013-019>022-031-037>040-048>050-221100-
NORTHEAST WISCONSIN

CITY           SKY/WX    TMP DP  RH WIND       PRES   REMARKS
ANTIGO         CLEAR     58  56  95 S8        29.84S
SHAWANO        CLOUDY    67  58  72 S6        29.84S
OCONTO         CLOUDY    63  57  81 S8        29.84F
STURGEON BAY   CLOUDY    60  55  83 S17G23    29.87F
GREEN BAY      PTCLDY    64  59  83 S12       29.85F
MANITOWOC      CLOUDY    59  54  83 S14       29.90F
APPLETON       PTCLDY    63  54  72 S10       29.84F
CLINTONVILLE   MOCLDY    64  57  77 SE7       29.83F
OSHKOSH        CLOUDY    66  57  72 S12       29.85F
$$

WIZ032>034-041-042-053>061-221100-
SOUTHWEST WISCONSIN

CITY           SKY/WX    TMP DP  RH WIND       PRES   REMARKS
LA CROSSE      LGT RAIN  54  51  90 W7        29.91R
SPARTA         CLOUDY    51  51  99 CALM      29.90R
VIROQUA        CLOUDY    52  52 100 W6        29.91R
BOSCOBEL       LGT RAIN  54  52  93 W3        29.90R
PRAIRIE DU CHI DRIZZLE   54  50  87 W7        29.92R
PLATTEVILLE    CLOUDY    57  57 100 W10       29.89R
$$

WIZ056-057-062-063-064-067-068-221100-
SOUTH CENTRAL WISCONSIN

CITY           SKY/WX    TMP DP  RH WIND       PRES   REMARKS
REEDSBURG      CLOUDY    60  60 100 W5        29.87R
BARABOO/DELLS  CLOUDY    61  57  85 W7        29.86R
LONE ROCK      CLOUDY    60  60 100 W12       29.87S
MINERAL POINT  LGT RAIN  61  61 100 W6        29.87F
MADISON        CLOUDY    65  58  78 S10       29.85F
MIDDLETON      CLOUDY    67  58  73 S9        29.87R
WATERTOWN      LGT RAIN  65  59  81 S5        29.88S
MONROE         CLOUDY    63  55  77 S7        29.87S
JANESVILLE     RAIN      64  64 100 S8        29.89R
$$

WIZ051-052-058>065-066-070>072-221100-
SOUTHEAST WISCONSIN

CITY           SKY/WX    TMP DP  RH WIND       PRES   REMARKS
MILWAUKEE      MOCLDY    61  56  83 SE8       29.91F
WAUKESHA       CLOUDY    63  54  72 S9        29.91F
MILWAUKEE/TIMM CLOUDY    64  52  63 S9        29.91S
RACINE         CLOUDY    61  55  81 S12       29.93F
BURLINGTON     CLEAR     64  58  78 S7        29.91S
KENOSHA        CLOUDY    67  56  67 S10       29.92S
FOND DU LAC    LGT RAIN  67  56  67 S12       29.86F
SHEBOYGAN      CLOUDY    60  56  86 S12       29.90F
WEST BEND      CLOUDY    64  54  68 S8        29.90S
JUNEAU         CLOUDY    62  58  86 SE8       29.89F
$$

LSZ147-162-221100-
LAKE SUPERIOR

STATION/POSITION TIME  TEMP    WIND        PRES    WAVE
                       AIR SEA DIR/SP/G            HT/PER
                 (UTC) (F)     (DEG/KT/KT) (MB)    (FT/S)
W MID LAKE BUOY  0950   54 52              1006.3R   3/ 4
DEVILS ISLAND    1000   53     230/ 26/ 31 1007.2R
PORT WING        0840          230/  9/ 12 1007.8S
SAXON HARBOR     0930   56     210/  8/ 16 1007.8R
$$

LMZ867-665-643>646-221100-
LAKE MICHIGAN

STATION/POSITION TIME  TEMP    WIND        PRES    WAVE
                       AIR SEA DIR/SP/G            HT/PER
                 (UTC) (F)     (DEG/KT/KT) (MB)    (FT/S)
S GREEN BAY BUOY 1000   62 58  180/ 14/ 17 1010.7F
N MID LAKE BUOY  0950   62 58  170/ 21/ 25 1012.5F   8/ 7
NORTHPORT PIER   0940   60     160/ 10/ 17 1011.9F
KEWAUNEE LAKESHO 0954   56     180/ 12/ 14 1011.7F
SHEBOYGAN LAKESH 1000   55     190/ 18/ 19 1012.4F
PORT WASHINGTON  0940   56     190/  6/  9 1013.9S
ATWATER BUOY     0909   57 52  150/ 16/ 19 1012.9F
MILWAUKEE LAKESH 1000   56     150/ 11/ 13   N/A
S MID LAKE BUOY  0950   63 60  150/ 19/ 21 1014.2F   3/ 5
KENOSHA   LAKESH 1000   58     180/ 13/ 19 1012.9
$$

TC  - TEMPERATURE IN CELSIUS
VSB - VISIBILITY IN STATUTE MILES
WCI - WIND CHILL INDEX
HX  - HEAT INDEX





USA.gov is the U.S. government's official web portal to all federal, state and local government web resources and services.